sat.trackr.live / text

‹ back to catalog

STARLINK-1048

NORAD 44753 · 2019-074AS

PAYLOAD ACTIVE UNKNOWN

§ Identity

Operator
Country
US
Launch date
2019-11-11
Launch site
AFETR
Launch vehicle
Mass (kg)
RCS (m²)

Purposes: comms

External: N2YO · Heavens-Above · Gunter

§ Orbital elements

Epoch: 2026-09-12T16:49:11.584128Z

Period
91.21 min
Inclination
53.0417°
Eccentricity
0.0006135
Mean motion
15.78718305 rev/d
Perigee alt
330.0 km
Apogee alt
338.2 km
Semi-major
6,712.2 km
B*
4.2217e-4
RAAN
328.0706°
Arg perigee
7.8645°
Mean anomaly
352.2470°
Rev number
37,832

§ Raw data

STARLINK-10481 44753U 19074AS  26255.70082852  .00075602  00000+0  42217-3 0  99942 44753  53.0417 328.0706 0006135   7.8645 352.2470 15.78718305378327

JSON: /api/v1/satellites/44753 · /tle

For live sub-satellite position, see the globe view (requires WebGL).

§ Visibility from observer

Set your observer location to see the next 7 days of passes ≥ 10°. The values pass through the URL so the page stays shareable.

No JS? Fill the form by hand. The geolocation button needs JavaScript.